Torna al catalogo

STARLINK-30759

AttivoComunicazioniVLEO
NORAD 58122·PAYLOAD·🇺🇸 United States

Lanciato Oct 22, 2023 da Cape Canaveral Space Force Station

Loading…

Prossimi Passaggi (prossime 24 ore)

TLE

AggiornatoSource: CelesTrak SupGP

Epoca: Sep 14, 2026, 22:01 UTC

1 58122C 23162E   26257.91784722 -.00000803  00000+0 -29106-4 0  2575
2 58122  43.0022 143.6639 0001326 271.0728 288.2599 15.27573225    15

Traccia STARLINK-30759 in tempo reale con AllMySat

Download on the App Store